Location: ???????
(55.4362°N, 38.1183°E)
Time: 18:27:59
(UTC+00:00)

PSLV R/B - Pass Details

Date: 17 June 2021
Orbit: 598 x 700 km, 97.9° (Epoch: 29 July)

Event Time Altitude Azimuth Distance (km) Brightness Sun altitude
Rises 21:22:25 0° 19° (NNE) 2,880 8.5 -11.1°
Reaches altitude 10° 21:24:41 10° 27° (NNE) 1,981 7.2 -11.2°
Maximum altitude 21:28:47 42° 98° (E) 895 4.3 -11.2°
Enters shadow 21:32:08 15° 166° (SSE) 1,706 5.2 -11.2°
